Home > Weather > Milan > Past weeks

Flag for Italy Past Weather in Milan, Italy — Yesterday and Last 2 Weeks

Now
79 °F

Sunny.


Feels Like: 79 °F
Forecast: 64 / 81 °F
Wind: 3 mph from North

Location: Milan / Linate

Current Time: May 27, 2016 at 2:22:55 PM

Latest Report: May 27, 2016 at 1:50 PM


Visibility: 10 mi

Pressure: 29.98 "Hg

Humidity: 42%

Dew Point: 54 °F

Location of MilanLocation

Past Weather in Milan — Graph

°F

Milan Temperature Yesterday

Maximum temperature yesterday: 79 °F (at 3:20 PM)
Minimum temperature yesterday: 57 °F (at 5:20 AM)
Average temperature yesterday: 70 °F

High & Low Weather Summary for the Past Weeks

 TemperatureHumidityPressure
High81 °F (May 21, 5:50 PM)100% (May 14, 1:50 AM)30.12 "Hg (May 14, 1:50 AM)
Low46 °F (May 20, 5:20 AM)16% (May 15, 3:50 PM)29.45 "Hg (May 13, 4:50 AM)
Average64 °F63%29.87 "Hg
* Reported May 12 12:20 PM — May 27 12:50 PM, Milan, Weather by CustomWeather, © 2016

Note: Actual official high and low records may vary slightly from our data, if they occured in-between our weather recording intervals... More about our weather records

Advertising

Milan Weather History for the Previous 24 Hours

Scroll right to see more
 ConditionsComfort  
Time TempWeatherWind HumidityBarometerVisibility
12:50 PM
Fri, May 27
79 °FClear.5 mph42%30.01 "Hg6 mi
12:20 PM79 °FClear.3 mph48%30.01 "Hg6 mi
11:50 AM77 °FSunny.2 mph51%30.01 "Hg10 mi
11:20 AM77 °FPassing clouds.3 mph51%30.04 "HgN/A
10:50 AM75 °FSunny.2 mph50%30.04 "Hg10 mi
10:20 AM75 °FPassing clouds.2 mph54%30.04 "HgN/A
9:50 AM72 °FPassing clouds.3 mph57%30.04 "HgN/A
9:20 AM70 °FPassing clouds.5 mph64%30.04 "HgN/A
8:50 AM68 °FPassing clouds.5 mph64%30.04 "HgN/A
8:20 AM68 °FPassing clouds.3 mph64%30.04 "HgN/A
7:50 AM66 °FPassing clouds.5 mph68%30.04 "HgN/A
7:20 AM64 °FPassing clouds.5 mph68%30.04 "HgN/A
6:50 AM63 °FSunny.1 mph73%30.01 "Hg10 mi
6:20 AM61 °FClear.2 mph77%30.01 "HgN/A
5:50 AM61 °FClear.2 mph77%30.01 "HgN/A
5:20 AM61 °FClear.No wind72%30.01 "HgN/A
4:50 AM61 °FClear.1 mph77%30.01 "Hg10 mi
4:20 AM61 °FClear.No wind77%30.01 "Hg10 mi
3:50 AM63 °FClear.No wind73%30.01 "Hg10 mi
3:20 AM63 °FClear.1 mph73%30.01 "Hg10 mi
2:50 AM64 °FClear.No wind64%30.01 "Hg10 mi
2:20 AM63 °FClear.No wind68%30.01 "Hg10 mi
1:50 AM66 °FClear.1 mph56%30.01 "Hg10 mi
1:20 AM68 °FClear.2 mph53%30.01 "Hg10 mi
12:50 AM68 °FPassing clouds.3 mph56%30.01 "HgN/A
12:20 AM66 °FPassing clouds.3 mph64%30.01 "HgN/A
11:50 PM
Thu, May 26
66 °FClear.2 mph64%30.01 "Hg10 mi
11:20 PM66 °FPassing clouds.3 mph68%30.01 "HgN/A
10:50 PM68 °FClear.1 mph60%29.98 "Hg10 mi
10:20 PM70 °FPassing clouds.2 mph57%29.98 "HgN/A
9:50 PM72 °FPassing clouds.2 mph50%29.98 "HgN/A
9:20 PM73 °FSunny.5 mph47%29.98 "Hg10 mi
8:50 PM73 °FSunny.5 mph44%29.98 "Hg10 mi
8:20 PM77 °FSunny.5 mph36%29.98 "Hg10 mi
7:50 PM77 °FPassing clouds.5 mph36%29.95 "HgN/A
7:20 PM77 °FPassing clouds.6 mph36%29.95 "HgN/A
6:50 PM79 °FPassing clouds.5 mph34%29.95 "HgN/A
6:20 PM79 °FPassing clouds.3 mph30%29.95 "HgN/A
5:50 PM79 °FPassing clouds.3 mph37%29.95 "HgN/A
5:20 PM79 °FPassing clouds.3 mph32%29.95 "HgN/A
4:50 PM79 °FSunny.6 mph34%29.95 "Hg10 mi
4:20 PM79 °FPassing clouds.5 mph34%29.95 "HgN/A
3:50 PM77 °FPassing clouds.5 mph36%29.98 "HgN/A
3:20 PM79 °FSunny.2 mph32%29.98 "Hg10 mi
2:50 PM77 °FPassing clouds.6 mph39%29.98 "HgN/A
2:20 PM77 °FSunny.5 mph34%29.98 "Hg10 mi
Weather by CustomWeather, © 2016

See weather overviewHow to use our weather pages